Time,TemperatureF,DewpointF,PressureIn,WindDirection,WindDirectionDegrees,WindSpeedMPH,WindSpeedGustMPH,Humidity,HourlyPrecipIn,Conditions,Clouds,dailyrainin,SoftwareType,DateUTC
2013-04-22 00:03:00,70.0,70.0,30.07,North,0,0.0,0.0,100,99.99,,,-99.99,,2013-04-22 04:03:00,
2013-04-22 00:12:00,70.0,70.0,30.07,North,0,0.0,0.0,100,99.99,,,-99.99,,2013-04-22 04:12:00,
2013-04-22 00:23:00,70.0,70.0,30.07,North,0,0.0,0.0,100,99.99,,,-99.99,,2013-04-22 04:23:00,
2013-04-22 00:33:00,70.0,70.0,30.07,NNW,340,2.0,4.0,100,99.99,,,-99.99,,2013-04-22 04:33:00,
2013-04-22 00:43:00,70.0,70.0,30.07,NNW,340,2.0,4.0,100,99.99,,,-99.99,,2013-04-22 04:43:00,
2013-04-22 00:53:00,70.0,70.0,30.06,NW,312,4.0,7.0,100,99.99,,,-99.99,,2013-04-22 04:53:00,
2013-04-22 01:02:00,70.0,70.0,30.06,NNW,347,1.0,4.0,100,99.99,,,-99.99,,2013-04-22 05:02:00,
2013-04-22 01:12:00,70.0,70.0,30.05,North,0,0.0,0.0,100,99.99,,,-99.99,,2013-04-22 05:12:00,
2013-04-22 01:22:00,70.0,70.0,30.05,North,0,0.0,0.0,100,99.99,,,-99.99,,2013-04-22 05:22:00,
2013-04-22 01:32:00,70.0,70.0,30.05,North,0,0.0,0.0,100,99.99,,,-99.99,,2013-04-22 05:32:00,
2013-04-22 01:42:00,70.0,70.0,30.05,North,0,0.0,0.0,100,99.99,,,-99.99,,2013-04-22 05:42:00,
2013-04-22 01:52:00,70.0,70.0,30.05,North,0,0.0,0.0,100,99.99,,,-99.99,,2013-04-22 05:52:00,
2013-04-22 02:02:00,70.0,70.0,30.06,North,0,0.0,0.0,100,99.99,,,-99.99,,2013-04-22 06:02:00,
2013-04-22 02:12:00,70.0,70.0,30.06,North,0,0.0,0.0,100,99.99,,,-99.99,,2013-04-22 06:12:00,
2013-04-22 02:21:00,70.0,70.0,30.06,North,0,0.0,0.0,100,99.99,,,-99.99,,2013-04-22 06:21:00,
2013-04-22 02:32:00,70.0,70.0,30.05,NW,316,0.0,0.0,100,99.99,,,-99.99,,2013-04-22 06:32:00,
2013-04-22 02:42:00,70.0,70.0,30.05,NW,316,0.0,0.0,100,99.99,,,-99.99,,2013-04-22 06:42:00,
2013-04-22 02:52:00,70.0,70.0,30.05,North,0,0.0,0.0,100,99.99,,,-99.99,,2013-04-22 06:52:00,
2013-04-22 03:01:00,69.0,69.0,30.05,North,0,0.0,0.0,100,99.99,,,-99.99,,2013-04-22 07:01:00,
2013-04-22 03:12:00,69.0,69.0,30.05,North,0,0.0,0.0,100,99.99,,,-99.99,,2013-04-22 07:12:00,
2013-04-22 03:21:00,69.0,69.0,30.04,North,0,0.0,0.0,100,99.99,,,-99.99,,2013-04-22 07:21:00,
2013-04-22 03:32:00,70.0,70.0,30.03,North,0,0.0,0.0,100,99.99,,,-99.99,,2013-04-22 07:32:00,
2013-04-22 03:42:00,70.0,70.0,30.03,North,0,0.0,0.0,100,99.99,,,-99.99,,2013-04-22 07:42:00,
2013-04-22 03:52:00,70.0,70.0,30.01,North,0,0.0,0.0,100,99.99,,,-99.99,,2013-04-22 07:52:00,
2013-04-22 04:02:00,69.0,69.0,30.00,North,0,0.0,0.0,100,99.99,,,-99.99,,2013-04-22 08:02:00,
2013-04-22 04:11:00,69.0,69.0,30.01,NNW,332,0.0,2.0,100,99.99,,,-99.99,,2013-04-22 08:11:00,
2013-04-22 04:22:00,69.0,69.0,30.01,NNW,332,0.0,2.0,100,99.99,,,-99.99,,2013-04-22 08:22:00,
2013-04-22 04:32:00,69.0,69.0,30.00,NW,316,2.0,4.0,100,99.99,,,-99.99,,2013-04-22 08:32:00,
2013-04-22 04:42:00,69.0,69.0,30.00,NW,316,2.0,4.0,100,99.99,,,-99.99,,2013-04-22 08:42:00,
2013-04-22 04:53:00,69.0,69.0,29.99,North,0,0.0,0.0,100,99.99,,,-99.99,,2013-04-22 08:53:00,
2013-04-22 05:01:00,69.0,69.0,30.00,North,0,0.0,0.0,100,99.99,,,-99.99,,2013-04-22 09:01:00,
2013-04-22 05:11:00,70.0,70.0,30.01,NW,319,1.0,2.0,100,99.99,,,-99.99,,2013-04-22 09:11:00,
2013-04-22 05:21:00,70.0,70.0,30.01,NW,319,1.0,2.0,100,99.99,,,-99.99,,2013-04-22 09:21:00,
2013-04-22 05:33:00,69.0,69.0,30.01,North,0,0.0,0.0,100,99.99,,,-99.99,,2013-04-22 09:33:00,
2013-04-22 05:42:00,69.0,69.0,30.01,North,0,0.0,0.0,100,99.99,,,-99.99,,2013-04-22 09:42:00,
2013-04-22 05:52:00,69.0,69.0,30.00,North,0,0.0,0.0,100,99.99,,,-99.99,,2013-04-22 09:52:00,
2013-04-22 06:03:00,69.0,69.0,29.99,NNE,17,2.0,4.0,100,99.99,,,-99.99,,2013-04-22 10:03:00,
2013-04-22 06:12:00,69.0,69.0,29.99,NNE,17,2.0,4.0,100,99.99,,,-99.99,,2013-04-22 10:12:00,
2013-04-22 06:22:00,69.0,69.0,29.99,North,356,4.0,6.0,100,99.99,,,-99.99,,2013-04-22 10:22:00,
2013-04-22 06:32:00,69.0,69.0,29.99,ENE,60,2.0,4.0,100,99.99,,,-99.99,,2013-04-22 10:32:00,
2013-04-22 06:42:00,69.0,69.0,29.99,ENE,60,2.0,4.0,100,99.99,,,-99.99,,2013-04-22 10:42:00,
2013-04-22 06:52:00,69.0,69.0,30.01,North,359,4.0,8.0,100,99.99,,,-99.99,,2013-04-22 10:52:00,
2013-04-22 07:02:00,69.0,69.0,30.01,North,350,0.0,4.0,100,99.99,,,-99.99,,2013-04-22 11:02:00,
2013-04-22 07:12:00,69.0,69.0,30.00,NE,56,0.0,3.0,100,99.99,,,-99.99,,2013-04-22 11:12:00,
2013-04-22 07:22:00,69.0,69.0,30.00,NE,56,0.0,3.0,100,99.99,,,-99.99,,2013-04-22 11:22:00,
2013-04-22 07:32:00,69.0,69.0,30.02,SSW,197,1.0,4.0,100,99.99,,,-99.99,,2013-04-22 11:32:00,
2013-04-22 07:42:00,69.0,69.0,30.02,SSW,197,1.0,4.0,100,99.99,,,-99.99,,2013-04-22 11:42:00,
2013-04-22 07:52:00,69.0,69.0,30.02,North,0,0.0,0.0,100,99.99,,,-99.99,,2013-04-22 11:52:00,
2013-04-22 08:02:00,70.0,70.0,30.01,North,0,0.0,0.0,100,99.99,,,-99.99,,2013-04-22 12:02:00,
2013-04-22 08:12:00,70.0,70.0,30.02,North,6,0.0,2.0,100,99.99,,,-99.99,,2013-04-22 12:12:00,
2013-04-22 08:21:00,70.0,70.0,30.02,North,6,0.0,2.0,100,99.99,,,-99.99,,2013-04-22 12:21:00,
2013-04-22 08:32:00,70.0,70.0,30.02,NNW,345,1.0,3.0,100,99.99,,,-99.99,,2013-04-22 12:32:00,
2013-04-22 08:42:00,70.0,70.0,30.02,NNW,345,1.0,3.0,100,99.99,,,-99.99,,2013-04-22 12:42:00,
2013-04-22 08:52:00,70.0,70.0,30.03,North,0,0.0,0.0,100,99.99,,,-99.99,,2013-04-22 12:52:00,
2013-04-22 09:01:00,70.0,70.0,30.04,WNW,297,0.0,1.0,100,99.99,,,-99.99,,2013-04-22 13:01:00,
2013-04-22 09:11:00,70.0,70.0,30.04,WNW,297,0.0,1.0,100,99.99,,,-99.99,,2013-04-22 13:11:00,
2013-04-22 09:22:00,70.0,70.0,30.05,NNW,342,4.0,6.0,100,99.99,,,-99.99,,2013-04-22 13:22:00,
2013-04-22 09:32:00,71.0,71.0,30.05,North,7,2.0,5.0,100,99.99,,,-99.99,,2013-04-22 13:32:00,
2013-04-22 09:42:00,71.0,71.0,30.05,North,7,2.0,5.0,100,99.99,,,-99.99,,2013-04-22 13:42:00,
2013-04-22 09:53:00,71.0,71.0,30.05,North,354,6.0,8.0,100,99.99,,,-99.99,,2013-04-22 13:53:00,
2013-04-22 10:02:00,72.0,72.0,30.05,North,6,5.0,7.0,100,99.99,,,-99.99,,2013-04-22 14:02:00,
2013-04-22 10:11:00,72.0,72.0,30.06,NNW,345,5.0,7.0,100,99.99,,,-99.99,,2013-04-22 14:11:00,
2013-04-22 10:21:00,72.0,72.0,30.06,NNW,345,5.0,7.0,100,99.99,,,-99.99,,2013-04-22 14:21:00,
2013-04-22 10:33:00,73.0,72.0,30.06,North,357,6.0,10.0,98,99.99,,,-99.99,,2013-04-22 14:33:00,
2013-04-22 10:42:00,73.0,72.0,30.06,North,357,6.0,10.0,98,99.99,,,-99.99,,2013-04-22 14:42:00,
2013-04-22 10:52:00,73.0,72.0,30.07,North,1,6.0,10.0,96,99.99,,,-99.99,,2013-04-22 14:52:00,
2013-04-22 11:02:00,73.0,71.0,30.07,North,8,6.0,10.0,95,99.99,,,-99.99,,2013-04-22 15:02:00,
2013-04-22 11:12:00,73.0,71.0,30.07,North,8,6.0,10.0,95,99.99,,,-99.99,,2013-04-22 15:12:00,
2013-04-22 11:22:00,73.0,71.0,30.07,North,6,7.0,14.0,92,99.99,,,-99.99,,2013-04-22 15:22:00,
2013-04-22 11:33:00,73.0,71.0,30.08,North,0,7.0,11.0,95,99.99,,,-99.99,,2013-04-22 15:33:00,
2013-04-22 11:43:00,73.0,71.0,30.08,North,0,7.0,11.0,95,99.99,,,-99.99,,2013-04-22 15:43:00,
2013-04-22 11:53:00,72.0,71.0,30.08,North,354,5.0,8.0,97,99.99,,,-99.99,,2013-04-22 15:53:00,
2013-04-22 12:03:00,72.0,72.0,30.08,North,1,5.0,10.0,100,99.99,,,-99.99,,2013-04-22 16:03:00,
2013-04-22 12:12:00,72.0,72.0,30.08,North,1,5.0,10.0,100,99.99,,,-99.99,,2013-04-22 16:12:00,
2013-04-22 12:23:00,72.0,72.0,30.08,NNE,15,6.0,10.0,100,99.99,,,-99.99,,2013-04-22 16:23:00,
2013-04-22 12:33:00,72.0,72.0,30.07,NNE,14,6.0,10.0,100,99.99,,,-99.99,,2013-04-22 16:33:00,
2013-04-22 12:42:00,72.0,72.0,30.07,NNE,14,6.0,10.0,100,99.99,,,-99.99,,2013-04-22 16:42:00,
2013-04-22 12:52:00,72.0,72.0,30.07,NE,56,5.0,9.0,100,99.99,,,-99.99,,2013-04-22 16:52:00,
2013-04-22 13:02:00,72.0,72.0,30.06,NNE,23,5.0,8.0,100,99.99,,,-99.99,,2013-04-22 17:02:00,
2013-04-22 13:12:00,72.0,72.0,30.06,NNE,23,5.0,8.0,100,99.99,,,-99.99,,2013-04-22 17:12:00,
2013-04-22 13:22:00,72.0,72.0,30.06,North,349,5.0,9.0,99,99.99,,,-99.99,,2013-04-22 17:22:00,
2013-04-22 13:32:00,73.0,72.0,30.05,North,3,6.0,11.0,96,99.99,,,-99.99,,2013-04-22 17:32:00,
2013-04-22 13:42:00,73.0,72.0,30.05,North,3,6.0,11.0,96,99.99,,,-99.99,,2013-04-22 17:42:00,
2013-04-22 13:52:00,73.0,71.0,30.05,North,10,5.0,9.0,92,99.99,,,-99.99,,2013-04-22 17:52:00,
2013-04-22 14:01:00,74.0,70.0,30.04,North,10,5.0,10.0,87,99.99,,,-99.99,,2013-04-22 18:01:00,
2013-04-22 14:12:00,74.0,70.0,30.04,North,10,5.0,10.0,87,99.99,,,-99.99,,2013-04-22 18:12:00,
2013-04-22 14:22:00,74.0,69.0,30.04,ENE,58,5.0,8.0,84,99.99,,,-99.99,,2013-04-22 18:22:00,
2013-04-22 14:32:00,74.0,69.0,30.03,NE,53,3.0,8.0,84,99.99,,,-99.99,,2013-04-22 18:32:00,
2013-04-22 14:42:00,74.0,69.0,30.03,NE,53,3.0,8.0,84,99.99,,,-99.99,,2013-04-22 18:42:00,
2013-04-22 14:52:00,76.0,69.0,30.03,NE,51,4.0,8.0,79,99.99,,,-99.99,,2013-04-22 18:52:00,
2013-04-22 15:01:00,77.0,68.0,30.02,NNE,30,2.0,5.0,73,99.99,,,-99.99,,2013-04-22 19:01:00,
2013-04-22 15:12:00,77.0,68.0,30.02,NNE,30,2.0,5.0,73,99.99,,,-99.99,,2013-04-22 19:12:00,
2013-04-22 15:22:00,77.0,67.0,30.01,North,8,3.0,6.0,72,99.99,,,-99.99,,2013-04-22 19:22:00,
2013-04-22 15:32:00,77.0,67.0,30.01,North,357,5.0,7.0,71,99.99,,,-99.99,,2013-04-22 19:32:00,
2013-04-22 15:42:00,77.0,67.0,30.01,North,357,5.0,7.0,71,99.99,,,-99.99,,2013-04-22 19:42:00,
2013-04-22 15:53:00,78.0,67.0,30.00,NNE,17,4.0,7.0,69,99.99,,,-99.99,,2013-04-22 19:53:00,
2013-04-22 16:02:00,79.0,68.0,29.99,North,0,4.0,8.0,70,99.99,,,-99.99,,2013-04-22 20:02:00,
2013-04-22 16:11:00,79.0,68.0,29.99,North,0,4.0,8.0,70,99.99,,,-99.99,,2013-04-22 20:11:00,
2013-04-22 16:22:00,78.0,67.0,29.99,ENE,59,6.0,10.0,69,99.99,,,-99.99,,2013-04-22 20:22:00,
2013-04-22 16:32:00,77.0,67.0,29.98,NE,46,4.0,9.0,72,99.99,,,-99.99,,2013-04-22 20:32:00,
2013-04-22 16:42:00,77.0,67.0,29.98,NE,46,4.0,9.0,72,99.99,,,-99.99,,2013-04-22 20:42:00,
2013-04-22 16:52:00,78.0,68.0,29.98,NE,56,2.0,5.0,72,99.99,,,-99.99,,2013-04-22 20:52:00,
2013-04-22 17:02:00,79.0,68.0,29.98,NE,37,3.0,8.0,69,99.99,,,-99.99,,2013-04-22 21:02:00,
2013-04-22 17:12:00,79.0,67.0,29.98,ENE,66,5.0,9.0,67,99.99,,,-99.99,,2013-04-22 21:12:00,
2013-04-22 17:21:00,79.0,67.0,29.98,ENE,66,5.0,9.0,67,99.99,,,-99.99,,2013-04-22 21:21:00,
2013-04-22 17:32:00,79.0,67.0,29.97,NE,42,6.0,14.0,66,99.99,,,-99.99,,2013-04-22 21:32:00,
2013-04-22 17:43:00,79.0,67.0,29.97,NE,42,6.0,14.0,66,99.99,,,-99.99,,2013-04-22 21:43:00,
2013-04-22 17:53:00,79.0,67.0,29.97,North,8,6.0,17.0,66,99.99,,,-99.99,,2013-04-22 21:53:00,
2013-04-22 18:03:00,78.0,65.0,29.97,NE,38,5.0,13.0,65,99.99,,,-99.99,,2013-04-22 22:03:00,
2013-04-22 18:12:00,78.0,65.0,29.97,NE,38,5.0,13.0,65,99.99,,,-99.99,,2013-04-22 22:12:00,
2013-04-22 18:22:00,77.0,66.0,29.98,ENE,62,7.0,16.0,69,99.99,,,-99.99,,2013-04-22 22:22:00,
2013-04-22 18:33:00,75.0,67.0,29.99,NE,48,5.0,12.0,75,99.99,,,-99.99,,2013-04-22 22:33:00,
2013-04-22 18:42:00,75.0,67.0,29.99,NE,48,5.0,12.0,75,99.99,,,-99.99,,2013-04-22 22:42:00,
2013-04-22 18:52:00,74.0,66.0,30.00,NE,56,6.0,16.0,75,99.99,,,-99.99,,2013-04-22 22:52:00,
2013-04-22 19:02:00,73.0,66.0,30.00,NE,55,7.0,14.0,79,99.99,,,-99.99,,2013-04-22 23:02:00,
2013-04-22 19:11:00,71.0,66.0,30.00,NE,37,6.0,11.0,85,99.99,,,-99.99,,2013-04-22 23:11:00,
2013-04-22 19:21:00,71.0,66.0,30.00,NE,37,6.0,11.0,85,99.99,,,-99.99,,2013-04-22 23:21:00,
2013-04-22 19:33:00,71.0,67.0,30.00,NE,49,5.0,11.0,87,99.99,,,-99.99,,2013-04-22 23:33:00,
2013-04-22 19:42:00,71.0,67.0,30.00,NE,49,5.0,11.0,87,99.99,,,-99.99,,2013-04-22 23:42:00,
2013-04-22 19:52:00,72.0,68.0,30.00,NNE,15,4.0,9.0,86,99.99,,,-99.99,,2013-04-22 23:52:00,
2013-04-22 20:02:00,72.0,66.0,30.01,NE,52,5.0,10.0,82,99.99,,,-99.99,,2013-04-23 00:02:00,
2013-04-22 20:12:00,72.0,66.0,30.01,NE,52,5.0,10.0,82,99.99,,,-99.99,,2013-04-23 00:12:00,
2013-04-22 20:21:00,72.0,67.0,30.01,NE,42,5.0,11.0,83,99.99,,,-99.99,,2013-04-23 00:21:00,
2013-04-22 20:32:00,71.0,66.0,30.02,NE,44,6.0,16.0,83,99.99,,,-99.99,,2013-04-23 00:32:00,
2013-04-22 20:42:00,71.0,66.0,30.02,NE,44,6.0,16.0,83,99.99,,,-99.99,,2013-04-23 00:42:00,
2013-04-22 20:52:00,71.0,66.0,30.03,NE,37,6.0,11.0,84,99.99,,,-99.99,,2013-04-23 00:52:00,
2013-04-22 21:01:00,70.0,65.0,30.03,NE,51,6.0,10.0,84,99.99,,,-99.99,,2013-04-23 01:01:00,
2013-04-22 21:11:00,70.0,65.0,30.03,NE,51,6.0,10.0,84,99.99,,,-99.99,,2013-04-23 01:11:00,
2013-04-22 21:21:00,70.0,65.0,30.04,ENE,59,5.0,9.0,84,99.99,,,-99.99,,2013-04-23 01:21:00,
2013-04-22 21:32:00,70.0,67.0,30.05,North,1,8.0,14.0,89,99.99,,,-99.99,,2013-04-23 01:32:00,
2013-04-22 21:42:00,70.0,67.0,30.05,North,1,8.0,14.0,89,99.99,,,-99.99,,2013-04-23 01:42:00,
2013-04-22 21:52:00,69.0,67.0,30.05,ENE,66,7.0,13.0,93,99.99,,,-99.99,,2013-04-23 01:52:00,
2013-04-22 22:02:00,69.0,67.0,30.06,North,8,6.0,10.0,94,99.99,,,-99.99,,2013-04-23 02:02:00,
2013-04-22 22:12:00,69.0,67.0,30.06,North,8,6.0,10.0,94,99.99,,,-99.99,,2013-04-23 02:12:00,
2013-04-22 22:21:00,68.0,67.0,30.07,NNE,15,6.0,11.0,95,99.99,,,-99.99,,2013-04-23 02:21:00,
2013-04-22 22:32:00,68.0,67.0,30.07,ENE,70,7.0,14.0,96,99.99,,,-99.99,,2013-04-23 02:32:00,
2013-04-22 22:42:00,68.0,67.0,30.07,ENE,70,7.0,14.0,96,99.99,,,-99.99,,2013-04-23 02:42:00,
2013-04-22 22:52:00,68.0,67.0,30.07,North,356,7.0,11.0,96,99.99,,,-99.99,,2013-04-23 02:52:00,
2013-04-22 23:01:00,68.0,67.0,30.07,NNE,18,8.0,14.0,96,99.99,,,-99.99,,2013-04-23 03:01:00,
2013-04-22 23:11:00,68.0,67.0,30.07,NNE,18,8.0,14.0,96,99.99,,,-99.99,,2013-04-23 03:11:00,
2013-04-22 23:21:00,68.0,67.0,30.07,North,8,6.0,10.0,96,99.99,,,-99.99,,2013-04-23 03:21:00,
2013-04-22 23:33:00,68.0,67.0,30.07,NNE,23,6.0,11.0,96,99.99,,,-99.99,,2013-04-23 03:33:00,
2013-04-22 23:43:00,68.0,67.0,30.07,NNE,23,6.0,11.0,96,99.99,,,-99.99,,2013-04-23 03:43:00,
2013-04-22 23:53:00,68.0,67.0,30.07,NNE,14,6.0,10.0,96,99.99,,,-99.99,,2013-04-23 03:53:00,